Yankton, SD

8:59 PM CST on December 14, 2019 (GMT -0600)
Gurney Municipal

Weather History for KYKN - November, 2019

Change the Weather History Date:

Thursday, November 14, 2019

  Actual Average Record
Temperature  
Mean Temperature 32 °F -  
Max Temperature 46 °F 44 °F 75 °F (1958)
Min Temperature 19 °F 24 °F -15 °F (1959)
Degree Days  
Heating Degree Days 32    
Moisture  
Dew Point 24 °F    
Average Humidity 75    
Maximum Humidity 92    
Minimum Humidity 54    
Precipitation  
Precipitation 0.00 in - - ()
Sea Level Pressure  
Sea Level Pressure 30.36 in    
Wind  
Wind Speed 8 mph (WSW)    
Max Wind Speed 12 mph    
Max Gust Speed -    
Visibility 10 miles    
Events      
Averages and records for this station are not official NWS values.
T = Trace of Precipitation, MM = Missing Value Source: NWS Daily Summary

Daily Weather History Graph

Daily Weather History Graph

Search for Another Location

Airport or City:

Astronomy

Nov. 14, 2019 Rise Set
Actual Time 7:20 AM CST 5:07 PM CST
Civil Twilight 6:49 AM CST 5:37 PM CST
Nautical Twilight 6:15 AM CST 6:11 PM CST
Astronomical Twilight 5:42 AM CST 6:45 PM CST
Moon 6:51 PM CST (11/14) 9:18 AM CST (11/14)
Length of Visible Light 10h 47m
Length of Day
9h 46m
Waning Gibbous, 95% of the Moon is Illuminated
Nov 14
Waning Gibbous
Nov 19
Last Quarter
Nov 26
New
Dec 4
First Quarter
Dec 11
Full

Hourly Weather History & Observations

Time (CST) Temp. Windchill Dew Point Humidity Pressure Visibility Wind Dir Wind Speed Gust Speed Precip Events Conditions
12:56 AM 23.0 °F 13.1 °F 21.0 °F 92% 30.28 in 10.0 mi WNW 9.2 mph - N/A   Clear
1:56 AM 21.0 °F 9.9 °F 19.0 °F 92% 30.30 in 10.0 mi WNW 10.4 mph - N/A   Clear
2:56 AM 21.0 °F 11.4 °F 18.0 °F 88% 30.32 in 10.0 mi WNW 8.1 mph - N/A   Clear
3:56 AM 21.0 °F 9.9 °F 18.0 °F 88% 30.34 in 10.0 mi West 10.4 mph - N/A   Clear
4:56 AM 21.0 °F 9.3 °F 18.0 °F 88% 30.36 in 10.0 mi WNW 11.5 mph - N/A   Clear
5:56 AM 19.9 °F 9.3 °F 17.1 °F 89% 30.38 in 10.0 mi WNW 9.2 mph - N/A   Clear
6:56 AM 19.0 °F 9.0 °F 15.1 °F 85% 30.39 in 10.0 mi West 8.1 mph - N/A   Clear
7:56 AM 19.9 °F 12.1 °F 16.0 °F 85% 30.41 in 10.0 mi WNW 5.8 mph - N/A   Clear
8:56 AM 27.0 °F 21.6 °F 19.0 °F 72% 30.41 in 10.0 mi West 4.6 mph - N/A   Clear
9:56 AM 30.0 °F 23.2 °F 21.0 °F 69% 30.41 in 10.0 mi WSW 6.9 mph - N/A   Clear
10:56 AM 35.1 °F 27.4 °F 21.9 °F 59% 30.41 in 10.0 mi West 10.4 mph - N/A   Clear
11:56 AM 39.0 °F 34.0 °F 24.1 °F 55% 30.39 in 10.0 mi West 6.9 mph - N/A   Clear
12:56 PM 41.0 °F 34.7 °F 26.1 °F 55% 30.38 in 10.0 mi West 10.4 mph - N/A   Clear
1:56 PM 43.0 °F 37.2 °F 28.9 °F 58% 30.36 in 10.0 mi WNW 10.4 mph - N/A   Clear
2:56 PM 46.0 °F 42.5 °F 30.0 °F 54% 30.34 in 10.0 mi West 6.9 mph - N/A   Clear
3:56 PM 45.0 °F 41.8 °F 30.9 °F 58% 30.34 in 10.0 mi SSW 5.8 mph - N/A   Clear
4:56 PM 44.1 °F 41.5 °F 30.9 °F 60% 30.34 in 10.0 mi South 4.6 mph - N/A   Clear
5:56 PM 37.9 °F 34.4 °F 30.0 °F 73% 30.35 in 10.0 mi South 4.6 mph - N/A   Clear
6:56 PM 37.0 °F 34.5 °F 30.0 °F 76% 30.35 in 10.0 mi South 3.5 mph - N/A   Clear
7:56 PM 35.1 °F - 30.0 °F 82% 30.36 in 10.0 mi Calm Calm - N/A   Clear
8:56 PM 32.0 °F 26.4 °F 28.0 °F 85% 30.35 in 10.0 mi SSW 5.8 mph - N/A   Clear
9:56 PM 33.1 °F 28.7 °F 28.0 °F 82% 30.34 in 10.0 mi SSW 4.6 mph - N/A   Clear
10:56 PM 34.0 °F 31.0 °F 28.9 °F 82% 30.34 in 10.0 mi SSW 3.5 mph - N/A   Clear
11:56 PM 36.0 °F 33.3 °F 28.9 °F 76% 30.34 in 10.0 mi South 3.5 mph - N/A   Clear